CCA8978 YSSY-YPPH

Flight info

Callsign CCA8978
Flight time N/A
Altitude 34000
Route KADOM H44 AD Q33 ESP Q158 PH
Aircraft B772/H-HSDE2E3FGHIJ5LORVWXY/LB1D1

Departure

Time 2026-05-05 11:36
Airport Sydney Kingsford Smith International Airport (YSSY)

Arrival

Time N/A
Airport Perth International Airport (YPPH)
Time Latitude Longitude Altitude Speed Heading
2026-05-05 11:05 -33.93731 151.16943 33 ft 0 kts 254°
2026-05-05 11:24 -33.93731 151.16945 33 ft 0 kts 254°
2026-05-05 11:25 -33.93729 151.16956 33 ft 2 kts 262°
2026-05-05 11:25 -33.93728 151.16974 32 ft 2 kts 276°
2026-05-05 11:25 -33.93731 151.16991 32 ft 2 kts 287°
2026-05-05 11:25 -33.93736 151.17007 31 ft 2 kts 298°
2026-05-05 11:26 -33.93744 151.17023 31 ft 2 kts 310°
2026-05-05 11:26 -33.93755 151.17036 30 ft 2 kts 322°
2026-05-05 11:26 -33.93767 151.17046 30 ft 2 kts 334°
2026-05-05 11:26 -33.93781 151.17053 30 ft 2 kts 346°
2026-05-05 11:27 -33.93796 151.17056 29 ft 2 kts 350°
2026-05-05 11:27 -33.93808 151.17059 29 ft 0 kts 348°
2026-05-05 11:27 -33.93809 151.17059 29 ft 0 kts 348°
2026-05-05 11:29 -33.93802 151.17058 29 ft 4 kts 348°
2026-05-05 11:29 -33.93740 151.17068 29 ft 11 kts 38°
2026-05-05 11:29 -33.93672 151.17136 26 ft 14 kts
2026-05-05 11:29 -33.93576 151.17122 28 ft 9 kts 348°
2026-05-05 11:30 -33.93514 151.17105 29 ft 8 kts 347°
2026-05-05 11:30 -33.93414 151.17079 30 ft 22 kts 347°
2026-05-05 11:30 -33.93277 151.16986 32 ft 19 kts 325°
2026-05-05 11:30 -33.93146 151.16934 32 ft 19 kts 347°
2026-05-05 11:31 -33.93042 151.16913 32 ft 11 kts
2026-05-05 11:31 -33.92982 151.16977 31 ft 13 kts 68°
2026-05-05 11:31 -33.92974 151.17009 31 ft 0 kts 75°
2026-05-05 11:34 -33.92973 151.17012 31 ft 1 kts 75°
2026-05-05 11:34 -33.92965 151.17052 30 ft 9 kts 78°
2026-05-05 11:35 -33.92995 151.17160 31 ft 18 kts 144°
2026-05-05 11:35 -33.93159 151.17218 31 ft 45 kts 168°
2026-05-05 11:35 -33.93811 151.17387 18 ft 141 kts 168°
2026-05-05 11:35 -33.94972 151.17680 335 ft 191 kts 170°
2026-05-05 11:36 -33.96313 151.17911 1531 ft 203 kts 180°
2026-05-05 11:36 -33.97617 151.17841 2619 ft 191 kts 182°
2026-05-05 11:36 -33.99012 151.17749 3099 ft 209 kts 182°
2026-05-05 11:36 -34.00513 151.17648 3611 ft 226 kts 182°
2026-05-05 11:37 -34.02135 151.17548 4121 ft 244 kts 179°
2026-05-05 11:37 -34.03869 151.17877 4654 ft 260 kts 165°
2026-05-05 11:37 -34.05632 151.18468 5456 ft 267 kts 165°
2026-05-05 11:37 -34.07418 151.19076 6264 ft 273 kts 165°
2026-05-05 11:38 -34.09249 151.19693 7082 ft 277 kts 165°
2026-05-05 11:38 -34.11123 151.20319 7928 ft 281 kts 165°
2026-05-05 11:38 -34.13003 151.20946 8725 ft 285 kts 165°
2026-05-05 11:38 -34.14941 151.21591 9539 ft 289 kts 165°
2026-05-05 11:39 -34.16864 151.22224 10288 ft 294 kts 168°
2026-05-05 11:39 -34.18940 151.22383 10721 ft 309 kts 189°
2026-05-05 11:39 -34.21000 151.21527 11279 ft 319 kts 213°
2026-05-05 11:39 -34.22657 151.19786 12158 ft 318 kts 228°
2026-05-05 11:40 -34.24094 151.17772 12981 ft 320 kts 235°
2026-05-05 11:40 -34.25069 151.15363 13737 ft 323 kts 255°
2026-05-05 11:40 -34.25269 151.12674 14525 ft 326 kts 275°
2026-05-05 11:40 -34.24852 151.09985 15286 ft 330 kts 285°
2026-05-05 11:41 -34.23936 151.07426 16032 ft 333 kts 302°
2026-05-05 11:41 -34.22400 151.05313 16758 ft 338 kts 320°
2026-05-05 11:41 -34.20395 151.03876 17475 ft 343 kts 338°
2026-05-05 11:41 -34.18058 151.03178 18167 ft 346 kts 349°
2026-05-05 11:42 -34.15698 151.02730 18847 ft 348 kts 349°
2026-05-05 11:42 -34.13295 151.02246 19482 ft 351 kts 348°
2026-05-05 11:42 -34.10880 151.01720 20103 ft 354 kts 346°
2026-05-05 11:42 -34.08486 151.00978 20698 ft 356 kts 342°
2026-05-05 11:43 -34.06121 151.00166 21292 ft 358 kts 342°
2026-05-05 11:43 -34.03715 150.99313 21861 ft 360 kts 338°
2026-05-05 11:43 -34.01419 150.98044 22408 ft 361 kts 328°
2026-05-05 11:43 -33.99387 150.96306 22937 ft 363 kts 317°
2026-05-05 11:44 -33.97608 150.94099 23219 ft 372 kts 308°
2026-05-05 11:44 -33.96767 150.92708 23235 ft 381 kts 302°